Location: Beaver Brook Station
(42.3793°N, 71.2203°W)
Time: 02:06:53
(UTC+00:00)

Cosmos 1315 Rocket - Pass Details

Date: 29 October 2020
Orbit: 530 x 567 km, 81.2° (Epoch: 05 December)

Event Time Altitude Azimuth Distance (km) Brightness Sun altitude
Rises 22:25:32 0° 158° (SSE) 2,674 6.2 -8.7°
Reaches altitude 10° 22:27:58 10° 144° (SE) 1,794 5.2 -9.2°
Maximum altitude 22:31:08 24° 91° (E) 1,162 3.9 -9.7°
Drops below altitude 10° 22:34:22 10° 37° (NE) 1,825 5.0 -10.3°
Sets 22:36:51 0° 23° (NNE) 2,731 6.1 -10.8°
